Lapse_Rate
5.6 4.1 3.7 4.0 3.1 3.1 2.5 2.7 1.8 1.4 2.3 2.5 2.4 2.9 2.5 2.2 2.2 1.4 1.9 2.4 2.4 1.7 2.3 1.4 2.2 3.0 3.9 2.8 4.4 5.3 6.3 8.4 8.7 7.1 3.9 4.5 6.0 7.8 6.2 5.7 5.5 7.2 2.9
4.8 2.8 3.2 2.6 2.8 2.4 2.3 2.3 2.0 2.0 2.5 3.1 3.2 2.4 1.8 1.4 1.5 2.9 3.8 3.8 2.5 2.9 1.6 3.1 1.8 3.1 2.6 2.7 4.4 5.3 5.8 8.2 8.9 6.7 6.6 5.8 6.7 4.8 3.4 4.0 5.1 6.3 5.5
4.3 3.5 2.7 2.0 2.0 2.2 2.1 2.5 2.9 3.1 3.0 3.7 3.0 2.1 1.7 2.0 2.6 4.0 3.9 3.6 2.8 3.4 3.1 1.4 2.1 1.5 2.1 2.9 3.6 4.4 5.2 5.6 7.8 7.0 7.0 9.0 6.3 6.2 4.3 2.7 3.8 5.1 7.4
4.0 2.9 2.4 2.5 2.8 3.3 3.0 3.3 3.6 4.1 3.6 3.7 2.6 2.1 2.7 2.8 3.4 3.6 3.6 3.7 4.1 3.3 1.9 1.8 1.4 1.6 2.2 2.8 2.9 2.7 3.6 4.4 5.5 7.6 6.6 6.3 7.7 4.3 6.5 7.2 7.1 6.6 9.0
3.2 3.5 3.5 3.4 3.3 3.5 3.4 3.8 4.2 3.6 3.0 2.7 3.1 4.4 4.6 3.8 4.3 3.6 4.1 3.7 2.4 2.7 1.8 1.3 0.7 1.2 0.9 1.8 3.2 2.6 2.7 4.2 5.2 6.8 7.0 6.5 4.7 4.6 5.9 4.9 8.1 8.4 7.3
2.7 2.2 3.3 4.0 4.0 4.2 4.1 3.9 3.4 3.0 2.9 3.2 4.2 3.5 3.2 4.2 3.0 3.4 2.8 2.3 2.1 1.0 0.1 0.9 -0.3 -1.0 -1.3 -1.7 -0.8 -0.6 2.8 4.4 5.8 8.3 7.6 6.4 1.4 2.4 2.9 5.0 7.6 9.0 8.8
1.9 3.0 2.3 2.9 4.8 3.7 3.8 3.4 2.8 2.2 2.7 3.2 4.5 3.5 3.3 3.6 2.5 2.1 2.5 2.4 1.2 1.4 2.0 2.2 1.7 1.4 0.6 0.2 -1.3 -1.4 -1.0 -0.7 0.8 6.6 6.0 4.3 2.1 2.4 4.0 5.1 6.2 9.1 9.1
2.8 2.4 2.6 2.8 3.5 3.2 2.9 2.3 2.0 1.8 2.0 2.8 2.2 2.8 3.6 3.2 2.0 2.6 2.1 0.8 0.5 0.4 0.5 0.3 1.1 1.3 2.0 1.8 2.5 1.7 0.9 0.9 1.2 1.7 1.7 0.8 1.2 1.3 4.3 6.6 8.2 9.0 7.9
3.8 2.9 2.3 2.3 3.9 3.4 2.1 1.5 1.7 2.0 2.1 2.3 3.2 3.9 3.3 2.9 2.4 1.8 1.9 1.2 1.0 0.5 0.6 0.1 0.5 0.4 1.0 1.5 -0.1 -0.1 -0.1 -0.5 -0.8 -0.5 -0.8 -1.2 -1.6 -1.5 0.2 4.9 6.3 9.2 8.8
4.6 2.9 2.6 2.5 2.1 2.0 1.7 1.7 1.7 2.3 2.5 3.2 2.4 3.5 2.7 1.9 1.8 1.4 2.8 3.2 2.4 1.7 0.7 0.3 1.0 1.0 0.5 0.2 0.8 1.3 1.5 1.0 0.4 -0.1 -0.6 -0.8 -0.2 -0.5 0.2 2.0 4.8 8.5 6.6
4.8 3.6 2.5 2.6 2.4 1.8 1.2 1.3 1.8 2.1 2.3 2.1 2.4 3.0 3.0 2.8 1.3 2.0 3.4 3.8 3.2 2.3 1.9 1.4 1.7 1.2 1.2 1.0 1.5 2.5 2.9 1.7 1.1 1.4 1.4 1.7 2.0 1.8 1.4 0.9 1.6 4.7 5.4
3.4 3.2 1.9 2.0 2.2 1.3 1.6 1.7 1.6 1.9 2.9 3.7 3.8 4.1 3.9 2.6 2.4 2.2 3.2 4.6 3.1 2.6 1.9 2.4 1.8 1.6 1.7 1.1 1.2 0.9 0.7 1.7 2.1 2.5 3.2 4.0 4.2 3.4 2.3 1.9 1.5 2.0 2.2
3.8 3.3 1.9 2.0 1.9 1.9 1.8 1.9 2.3 2.5 3.8 4.0 4.4 4.3 3.4 3.1 3.3 3.0 4.4 3.1 3.6 4.6 3.6 2.4 2.0 2.6 2.8 1.7 1.5 0.9 0.7 2.7 3.5 3.6 4.6 5.5 5.1 3.9 2.5 2.8 2.7 2.6 2.8
3.2 2.7 2.7 2.5 2.1 2.3 2.8 2.6 2.3 2.7 3.4 4.7 4.6 4.5 4.3 4.1 3.9 3.8 4.2 4.0 3.5 4.2 3.2 3.7 3.8 4.4 3.6 3.2 2.4 2.0 3.3 4.1 4.6 5.6 7.3 8.2 6.0 5.1 6.1 7.2 7.2 6.8 8.9
4.3 3.4 3.6 3.7 3.1 2.7 3.2 3.6 3.4 3.0 3.8 3.5 3.5 3.9 3.1 4.2 3.8 3.5 4.0 3.9 3.8 3.7 3.9 4.5 4.6 5.7 6.7 6.0 4.8 4.5 5.3 6.0 6.1 8.7 9.1 8.3 7.8 9.0 9.3 8.8 9.6 9.5 9.2
4.6 4.6 4.1 4.1 3.1 3.4 3.6 4.0 3.0 2.7 2.1 2.6 3.0 3.5 4.0 3.8 2.8 3.5 4.1 3.8 1.9 1.0 2.7 4.2 6.3 7.1 7.7 8.3 8.7 8.7 8.9 8.1 9.1 9.3 8.9 8.8 9.3 9.3 9.4 9.4 9.6 9.4 9.3
3.5 3.4 3.7 3.9 4.3 4.6 5.4 5.2 4.6 3.9 2.9 2.6 2.7 2.8 2.9 2.1 2.7 3.7 3.6 3.2 3.5 2.2 4.4 5.0 6.8 7.1 8.3 8.9 9.0 9.1 9.0 9.3 9.3 9.3 8.7 9.2 9.3 9.5 9.0 9.4 9.3 9.4 9.3
2.6 2.7 3.5 4.0 4.4 4.8 5.3 5.7 5.8 5.0 4.8 4.3 4.0 3.8 3.4 3.5 3.7 4.0 3.8 4.3 3.5 4.6 6.4 5.9 6.3 6.8 8.2 8.8 9.1 9.3 9.4 9.2 8.0 8.0 8.8 9.2 9.1 9.2 9.1 9.3 9.4 9.1 9.3
3.1 3.3 3.7 3.9 4.6 5.2 5.7 6.0 6.0 6.1 6.0 5.5 4.8 4.2 4.4 4.5 4.7 5.1 5.3 5.4 4.9 5.4 7.1 7.1 6.9 6.8 7.8 8.8 8.8 8.9 8.7 8.6 7.5 8.0 9.1 9.1 9.0 9.3 9.2 9.4 9.4 8.1 8.1
4.8 4.4 5.2 5.9 5.7 6.2 6.3 6.8 6.7 6.6 6.2 5.9 5.6 5.4 5.2 5.3 6.3 7.1 7.2 7.2 6.3 6.4 6.3 6.8 7.1 8.0 8.5 8.9 8.7 8.1 8.3 8.9 8.9 9.0 9.1 9.1 9.1 9.2 9.2 9.2 9.2 9.2 9.1
5.5 5.9 5.4 6.7 7.0 6.5 7.0 7.3 7.2 6.4 6.3 6.2 5.8 4.8 4.7 5.8 6.2 6.8 7.3 7.3 6.9 6.8 7.1 7.2 8.3 7.8 8.1 8.7 9.2 9.1 9.2 9.2 9.2 9.2 9.3 9.3 9.1 9.1 9.4 9.5 9.4 9.4 9.5
5.8 5.2 5.3 5.8 6.1 6.6 7.1 7.1 6.6 6.0 5.8 5.7 5.5 5.4 5.3 6.2 6.2 6.6 6.9 7.0 7.3 7.6 7.1 7.3 8.9 8.9 8.1 7.8 7.9 9.0 9.1 8.9 8.9 9.1 9.2 9.2 9.2 8.5 9.4 9.5 9.4 9.3 9.4
5.2 5.2 5.3 5.8 5.6 5.4 6.2 6.3 6.2 6.1 6.1 6.0 5.8 5.7 6.1 6.4 6.4 6.6 6.8 6.6 6.7 7.0 7.4 7.7 7.5 7.9 7.7 7.1 7.6 8.3 8.7 8.9 9.0 9.0 9.1 9.1 9.0 9.4 9.4 9.4 9.3 9.3 9.3
5.3 5.3 6.1 5.5 5.8 5.9 5.8 6.1 6.2 6.1 6.3 6.1 6.3 6.5 6.9 7.2 7.1 7.0 6.8 6.5 6.6 6.7 6.7 7.0 7.3 7.2 6.9 6.7 6.9 7.5 8.2 8.2 7.9 7.8 8.1 9.1 9.4 9.4 9.5 9.4 9.3 9.2 9.3
5.2 5.3 5.3 5.5 5.8 5.6 5.8 6.4 6.3 6.1 6.2 6.2 6.5 6.8 7.0 6.8 6.7 6.6 6.5 6.5 6.6 6.5 6.3 6.1 6.5 6.2 6.3 6.7 6.7 6.9 6.1 6.2 6.8 7.1 7.2 8.3 9.4 9.2 9.1 9.1 9.2 9.3 9.2
5.6 5.8 6.0 6.3 5.9 6.2 6.3 6.3 6.3 6.3 6.3 6.3 6.3 6.4 6.5 6.7 6.7 6.5 6.4 6.4 6.5 6.6 6.5 6.5 6.2 6.3 5.7 5.9 5.9 5.0 4.8 5.1 5.3 6.0 6.7 7.8 8.5 8.5 8.5 7.9 8.4 9.1 9.1
Wind_Speed
8 10 12 13 14 14 14 13 15 17 18 18 17 14 13 10 7 10 8 9 9 11 11 12 11 10 7 8 6 5 5 5 9 7 6 6 5 6 7 5 5 6 11
8 11 14 13 13 14 14 15 18 19 18 17 17 16 14 12 10 11 9 9 10 11 11 12 12 8 9 9 6 7 6 4 8 12 9 6 6 5 5 3 4 7 8
4 3 6 10 13 13 15 16 17 18 18 17 17 17 15 13 12 9 9 8 7 9 12 12 12 14 10 8 7 6 7 6 7 8 8 6 6 5 6 5 2 4 5
3 6 9 10 12 14 15 16 18 18 19 18 17 17 16 16 14 15 12 11 11 8 9 11 10 11 10 11 9 7 7 7 8 7 8 7 7 5 3 4 5 3 1
5 6 8 10 12 14 15 16 16 16 16 16 17 17 15 14 11 15 15 16 14 12 10 10 10 11 12 10 8 9 9 7 7 7 7 7 6 6 4 2 2 3 4
8 5 7 9 10 12 13 14 15 15 15 15 14 14 14 12 16 18 15 12 13 13 12 11 11 14 13 11 10 5 4 8 8 6 6 7 5 5 4 3 3 4 4
6 8 7 9 9 9 12 14 14 14 15 14 13 14 14 10 22 20 16 9 9 10 11 11 10 8 13 12 13 12 9 10 7 5 7 6 8 5 5 6 5 3 2
8 8 10 11 12 12 11 11 12 13 14 13 12 12 11 10 21 20 15 10 9 9 8 9 9 10 9 13 12 11 10 8 6 5 7 6 6 7 5 2 3 3 3
9 10 10 9 13 13 12 12 11 12 11 11 12 13 13 14 22 21 17 11 10 10 8 9 9 8 14 14 11 11 10 8 11 12 14 12 10 5 2 5 4 5 3
9 10 10 9 10 11 12 12 9 11 11 9 11 10 15 14 23 24 15 10 12 10 10 9 13 11 16 14 10 10 9 9 8 8 9 9 7 9 8 5 3 3 3
6 9 11 10 12 10 10 10 11 11 12 12 12 11 13 15 15 20 15 11 10 11 10 9 9 16 18 16 11 7 7 9 9 7 6 4 5 5 6 8 7 2 3
5 6 10 11 9 10 13 10 12 12 13 13 13 11 10 11 18 16 16 10 14 10 9 9 10 18 18 16 10 12 16 10 6 6 4 5 4 4 5 7 7 8 9
7 8 9 10 10 11 14 13 10 11 11 11 10 10 9 9 9 18 15 13 10 9 8 11 17 19 17 12 13 17 14 7 6 6 6 6 5 6 8 7 7 8 8
6 9 9 10 11 10 8 9 9 10 10 10 10 10 10 9 9 10 9 10 10 9 11 10 12 11 11 10 10 10 7 7 7 6 6 6 5 6 6 6 5 5 4
5 8 8 8 10 9 8 8 8 7 9 12 10 10 12 11 10 15 13 9 9 9 11 9 10 9 8 8 8 9 8 7 7 7 7 7 6 6 6 5 5 5 4
6 5 5 6 7 7 7 6 8 8 7 8 11 11 7 11 20 21 19 18 17 19 9 9 9 10 9 9 9 8 8 9 8 7 7 6 6 6 6 5 4 5 5
7 6 4 5 5 6 9 9 8 7 11 11 12 14 16 20 23 23 21 21 21 15 8 8 8 8 8 9 8 8 8 8 8 7 6 7 6 6 5 5 5 5 5
7 7 5 4 5 5 6 6 7 9 9 8 11 12 19 25 24 23 22 20 11 9 7 8 8 8 8 8 8 8 8 8 7 7 6 6 6 6 6 6 5 5 5
5 4 4 4 4 4 5 6 7 8 8 8 9 9 13 21 22 23 26 10 10 9 8 8 7 8 8 8 8 8 8 8 7 7 6 6 6 6 6 6 5 3 4
5 6 5 5 6 6 6 7 8 8 9 9 8 9 10 10 10 11 10 8 9 8 7 7 7 8 8 8 8 8 8 8 7 7 7 6 6 6 6 6 5 6 7
5 5 5 5 5 5 5 6 7 7 8 8 7 8 12 9 9 9 9 8 7 7 7 8 7 7 7 8 8 8 8 8 8 8 7 7 6 6 5 5 6 6 5
4 6 5 5 5 5 5 5 7 7 8 8 8 9 13 7 8 8 7 7 6 7 7 7 7 7 7 8 8 8 8 8 8 8 7 6 6 6 5 6 6 6 6
4 6 6 6 6 7 6 6 6 7 8 8 9 9 8 7 7 8 8 7 6 6 8 8 6 6 9 9 10 10 8 7 8 9 7 7 6 6 6 6 6 6 6
5 6 6 6 6 7 6 6 6 8 8 7 7 7 7 6 6 7 6 6 7 6 10 8 7 6 9 9 9 9 8 8 9 11 10 7 7 7 6 6 6 6 5
6 6 7 7 6 6 6 7 7 7 6 6 6 6 6 6 6 6 6 6 6 6 6 8 8 9 11 11 11 10 10 11 10 11 11 10 8 8 6 5 5 5 6
6 6 6 6 7 6 6 6 6 6 6 6 6 5 6 6 6 6 6 6 6 6 7 8 8 10 12 11 11 12 12 12 11 11 10 9 6 6 5 6 6 5 6
Wind_Direction
226 191 180 183 178 175 172 165 151 145 150 145 133 133 118 114 131 108 131 154 149 163 166 149 145 150 151 125 139 142 139 170 135 112 141 166 132 138 129 109 92 76 74
280 180 181 171 166 164 160 157 150 149 146 138 136 127 128 134 135 138 159 154 171 169 158 151 140 151 129 134 143 145 133 135 140 145 150 155 140 134 130 95 78 70 55
274 171 149 149 153 156 152 151 149 147 142 143 141 143 144 137 137 160 161 157 162 178 167 146 166 140 138 142 143 150 143 131 130 145 146 151 148 158 147 160 105 109 87
224 155 148 153 154 159 152 150 152 156 154 157 153 149 154 154 156 166 164 163 168 169 151 155 153 135 143 147 148 155 149 141 140 150 146 157 166 163 181 156 151 135 92
185 178 170 156 155 153 157 163 161 157 152 148 148 155 157 155 168 161 161 171 159 164 157 143 141 139 145 145 160 161 155 156 159 158 158 160 154 166 163 119 116 161 166
163 158 155 160 164 162 160 155 146 141 141 142 151 147 152 162 155 159 161 163 167 158 149 151 135 144 144 132 102 72 142 167 170 169 169 156 137 154 149 158 171 197 205
153 136 122 124 131 141 140 139 137 138 138 145 148 151 149 144 158 155 161 164 156 146 148 150 149 143 151 134 122 114 89 57 36 192 157 159 149 164 157 177 171 201 167
167 146 145 141 139 136 136 137 138 139 142 148 140 145 136 154 161 156 149 145 139 133 131 127 138 155 143 138 139 120 111 100 73 71 109 109 114 158 192 163 170 132 133
180 163 156 153 154 144 148 141 141 143 142 146 145 150 154 158 158 152 148 141 133 126 120 120 135 131 140 135 126 132 122 109 101 104 104 102 93 76 198 187 182 206 177
187 170 157 153 147 152 150 138 142 144 139 138 138 152 158 156 160 159 153 150 154 149 144 133 151 149 150 143 142 143 140 145 134 128 115 98 85 79 78 55 168 194 157
167 163 153 153 149 136 131 134 137 136 138 144 145 151 153 159 162 163 169 163 164 160 154 156 159 157 156 155 148 156 154 151 157 151 135 136 149 112 83 73 56 51 131
143 153 141 140 142 136 135 139 136 140 141 150 151 151 155 150 151 166 178 171 163 156 156 162 156 165 162 158 158 131 137 153 161 159 164 184 179 144 115 98 88 83 64
147 138 131 135 134 141 141 143 141 146 152 153 155 155 153 153 155 161 167 152 165 154 154 156 157 167 160 156 147 148 151 158 177 174 181 193 190 145 137 137 127 119 110
143 135 134 137 135 140 140 147 150 156 157 161 163 162 158 156 154 160 156 157 141 125 131 147 154 156 161 150 156 158 172 175 181 187 187 187 172 172 190 182 179 177 170
150 136 138 143 139 140 144 155 164 175 177 169 170 164 162 170 171 160 153 154 158 143 141 147 152 164 170 171 174 180 192 187 192 191 190 185 193 193 192 190 201 186 212
132 114 126 141 131 137 136 121 96 137 137 124 150 158 151 142 145 147 149 147 146 146 147 165 171 177 181 186 188 187 192 189 199 191 194 194 200 202 194 197 200 214 214
113 109 104 104 128 148 163 159 141 123 123 136 141 140 142 147 147 149 146 146 146 147 152 173 184 182 191 193 191 194 193 191 190 196 196 200 207 206 195 199 204 212 222
88 93 114 121 134 148 157 156 149 154 151 146 142 148 146 150 152 149 149 143 156 177 176 182 183 187 195 195 195 191 193 181 191 195 196 202 207 208 200 209 206 215 220
84 88 91 100 117 127 129 128 131 141 141 143 139 134 148 153 155 160 160 160 163 176 187 188 186 185 194 196 195 193 189 183 189 186 195 201 204 213 208 210 206 205 262
96 96 125 137 138 139 141 142 139 137 140 145 148 145 147 151 166 169 173 162 166 176 186 194 192 192 196 195 191 189 188 187 187 193 197 198 199 215 213 209 210 196 208
119 123 105 126 129 134 140 148 143 141 140 140 133 138 147 157 163 171 173 171 169 182 186 200 192 191 190 191 193 192 195 193 197 201 196 196 195 205 212 208 214 224 236
109 112 103 99 105 108 120 131 135 138 137 134 135 143 144 149 154 164 171 173 179 181 183 188 186 187 187 190 190 192 197 200 198 197 194 194 190 209 205 216 215 220 218
101 103 110 111 103 111 110 121 126 130 130 136 145 149 159 153 159 168 170 173 174 176 175 170 173 177 178 185 192 195 198 197 192 190 190 190 197 207 206 211 210 223 219
110 110 111 113 120 115 114 115 119 124 132 139 145 153 162 151 155 157 156 156 166 168 168 168 170 171 169 177 181 182 183 175 181 183 192 192 200 199 206 215 212 215 219
103 112 115 117 114 108 118 123 122 124 128 135 140 147 147 147 146 144 142 150 156 153 152 157 163 161 167 171 164 163 147 153 164 173 187 193 198 188 212 207 214 205 214
101 100 105 111 111 117 120 121 120 123 126 127 132 136 143 144 141 137 140 144 150 152 157 157 155 154 151 148 147 142 144 149 153 164 173 182 182 194 194 211 200 221 203